IZ1KGA-1 Weather Reports


time (UTC)temp
C
wind
direction
speed
KPH
gust
KPH
rain 1hr
cm
rain 24hr
cm
rain mn
cm
humidity
%
barometer
mb
20260507015057 7 0 0.0 0.0 0.00 1.45 0.00 87 1012.7
20260507014621 7 0 0.0 0.0 0.00 1.45 0.00 87 1012.5
20260507014057 7 0 0.0 0.0 0.00 1.45 0.00 87 1012.5
20260507013557 7 0 0.0 4.8 0.00 1.45 0.00 86 1012.5
20260507013102 7 0 0.0 4.8 0.00 1.45 0.00 86 1012.4
20260507012556 7 0 0.0 4.8 0.00 1.45 0.00 86 1012.4
20260507012057 7 0 0.0 0.0 0.00 1.45 0.00 86 1012.4
20260507011602 7 0 0.0 4.8 0.00 1.45 0.00 86 1012.4
20260507011056 7 0 0.0 4.8 0.00 1.45 0.00 86 1012.3
20260507010556 7 256 1.6 4.8 0.00 1.45 0.00 86 1012.3
20260507010055 7 256 0.0 0.0 0.00 1.45 0.00 86 1012.3
20260507005556 7 0 0.0 0.0 0.00 1.57 0.00 86 1012.2
20260507005057 7 0 0.0 0.0 0.00 1.57 0.00 86 1012.2
20260507004558 7 0 0.0 0.0 0.00 1.57 0.00 86 1012.2
20260507004057 7 0 0.0 0.0 0.00 1.57 0.00 86 1012.2
20260507003557 7 0 0.0 0.0 0.00 1.57 0.00 86 1012.2
20260507003056 7 0 0.0 0.0 0.00 1.57 0.00 85 1012.0
20260507002556 8 0 0.0 0.0 0.00 1.57 0.00 85 1012.0
20260507002057 8 0 0.0 0.0 0.00 1.57 0.00 85 1012.0
20260507001605 8 0 0.0 0.0 0.00 1.57 0.00 85 1012.0
20260507001056 8 0 0.0 0.0 0.00 1.57 0.00 85 1011.9
20260507000600 8 0 0.0 0.0 0.00 1.57 0.00 85 1012.0
20260507000124 8 0 0.0 0.0 0.00 1.57 0.00 85 1011.8
20260506235557 8 0 0.0 0.0 0.00 1.57 0.00 85 1011.9
20260506235102 8 0 0.0 0.0 0.00 1.57 0.00 85 1011.8
20260506234618 8 0 0.0 6.4 0.00 1.57 0.00 84 1011.9
20260506234058 8 0 0.0 6.4 0.00 1.57 0.00 84 1011.9
20260506233559 8 256 0.0 6.4 0.00 1.57 0.00 84 1011.8
20260506233055 8 256 0.0 0.0 0.00 1.57 0.00 84 1011.9
20260506232556 8 0 0.0 0.0 0.00 1.57 0.00 84 1011.9
20260506232056 8 0 0.0 0.0 0.00 1.57 0.00 84 1011.9
20260506231558 8 0 0.0 0.0 0.00 1.57 0.00 84 1011.9
20260506231059 8 0 0.0 9.7 0.00 1.57 0.00 84 1011.9
20260506230558 9 0 1.6 9.7 0.00 1.57 0.00 85 1012.0
20260506225558 9 0 0.0 0.0 0.00 1.57 0.00 86 1012.0
20260506225056 9 0 0.0 0.0 0.00 1.57 0.00 85 1012.1
20260506224556 9 0 0.0 8.0 0.00 1.57 0.00 85 1012.0
20260506224055 9 0 0.0 8.0 0.00 1.57 0.00 85 1012.1
20260506223601 9 0 0.0 6.4 0.00 1.57 0.00 85 1012.0
20260506223100 9 0 0.0 6.4 0.00 1.57 0.00 85 1011.9
20260506222556 9 0 0.0 6.4 0.00 1.57 0.00 85 1011.9
20260506222059 9 0 0.0 0.0 0.00 1.57 0.00 85 1011.9
20260506221604 9 0 0.0 0.0 0.00 1.57 0.00 85 1011.9
20260506221056 9 0 0.0 0.0 0.00 1.57 0.00 85 1012.0
20260506220557 9 0 0.0 0.0 0.00 1.57 0.00 85 1011.8
20260506220057 9 0 0.0 0.0 0.00 1.57 0.00 85 1011.7
20260506215557 10 0 0.0 0.0 0.00 1.57 1.57 85 1011.8
20260506215058 10 0 0.0 0.0 0.00 1.57 1.57 84 1011.7
20260506214600 10 0 0.0 0.0 0.00 1.57 1.57 84 1011.6
20260506214057 10 0 0.0 0.0 0.00 1.57 1.57 84 1011.6
20260506213559 10 0 0.0 0.0 0.00 1.57 1.57 83 1011.5
20260506213100 10 0 0.0 0.0 0.00 1.57 1.57 83 1011.6
20260506212556 10 0 0.0 0.0 0.00 1.57 1.57 83 1011.5
20260506212056 10 0 0.0 0.0 0.00 1.57 1.57 82 1011.6
20260506211559 10 0 0.0 0.0 0.00 1.57 1.57 82 1011.5
20260506211100 10 0 0.0 0.0 0.00 1.57 1.57 82 1011.5
20260506210555 10 0 0.0 0.0 0.00 1.57 1.57 81 1011.3
20260506210055 10 0 0.0 4.8 0.00 1.57 1.57 81 1011.3
20260506205557 10 0 0.0 4.8 0.00 1.57 1.57 80 1011.3
20260506205056 10 238 0.0 4.8 0.00 1.57 1.57 80 1011.3
20260506204556 11 0 0.0 0.0 0.00 1.57 1.57 81 1011.2
20260506204145 11 0 0.0 0.0 0.00 1.57 1.57 81 1011.2
20260506203556 11 0 0.0 0.0 0.00 1.57 1.57 81 1011.1
20260506203055 11 0 0.0 0.0 0.00 1.57 1.57 80 1011.0
20260506202557 11 0 0.0 0.0 0.00 1.57 1.57 80 1010.9
20260506202058 11 0 0.0 0.0 0.00 1.57 1.57 80 1010.7
20260506201557 11 0 0.0 0.0 0.00 1.57 1.57 79 1010.6
20260506201057 11 0 0.0 0.0 0.00 1.57 1.57 79 1010.4
20260506200557 11 0 0.0 0.0 0.00 1.57 1.57 79 1010.4
20260506200057 12 0 0.0 6.4 0.00 1.57 1.57 80 1010.1
20260506195557 12 0 1.6 8.0 0.00 1.57 1.57 79 1010.2
20260506195058 12 223 1.6 8.0 0.00 1.57 1.57 80 1010.1
20260506194600 12 224 1.6 8.0 0.00 1.57 1.57 80 1009.9
20260506194059 12 225 0.0 0.0 0.00 1.57 1.57 79 1009.9
20260506193557 12 0 0.0 1.6 0.00 1.57 1.57 78 1009.7
20260506193059 12 0 0.0 1.6 0.00 1.57 1.57 76 1009.6
20260506192558 12 0 0.0 0.0 0.00 1.57 1.57 76 1009.5
20260506192057 12 0 0.0 0.0 0.00 1.57 1.57 75 1009.5
20260506191601 12 0 0.0 12.9 0.00 1.57 1.57 73 1009.4
20260506191057 12 0 0.0 12.9 0.00 1.57 1.57 72 1009.2
20260506190558 12 0 0.0 11.3 0.00 1.57 1.57 70 1009.1
20260506190056 13 0 0.0 8.0 0.00 1.57 1.57 70 1008.9
20260506185559 13 250 0.0 8.0 0.00 1.57 1.57 70 1008.9
20260506185057 13 259 0.0 16.1 0.00 1.57 1.57 72 1008.7
20260506184559 13 0 0.0 16.1 0.00 1.57 1.57 73 1008.8
20260506184059 13 238 4.8 20.9 0.00 1.57 1.57 71 1008.6
20260506183559 13 243 6.4 20.9 0.00 1.57 1.57 71 1008.5
20260506183104 13 236 8.0 14.5 0.00 1.57 1.57 72 1008.3
20260506182557 13 253 3.2 11.3 0.00 1.57 1.57 74 1008.3
20260506182057 13 253 4.8 12.9 0.00 1.57 1.57 71 1008.3
20260506181606 13 250 4.8 12.9 0.00 1.57 1.57 69 1008.2
20260506181055 14 360 1.6 12.9 0.00 1.57 1.57 70 1008.0
20260506180559 14 255 4.8 12.9 0.00 1.57 1.57 69 1007.9
20260506180058 15 248 1.6 12.9 0.00 1.57 1.57 69 1007.9
20260506175555 15 251 6.4 14.5 0.00 1.57 1.57 68 1007.7
20260506175056 15 0 4.8 14.5 0.00 1.57 1.57 69 1007.7
20260506174558 15 0 4.8 12.9 0.00 1.57 1.57 68 1007.7
20260506174057 16 252 0.0 6.4 0.00 1.57 1.57 73 1007.6
20260506173555 16 0 0.0 0.0 0.00 1.57 1.57 74 1007.7
20260506173126 16 0 0.0 11.3 0.00 1.57 1.57 74 1007.6
20260506172555 16 0 1.6 11.3 0.00 1.57 1.57 73 1007.4
20260506172058 16 0 4.8 11.3 0.00 1.57 1.57 72 1007.4
20260506171602 16 259 1.6 11.3 0.00 1.57 1.57 72 1007.3
20260506171058 17 251 1.6 11.3 0.00 1.57 1.57 72 1007.3
20260506170556 17 248 3.2 8.0 0.00 1.57 1.57 70 1007.2
20260506170107 17 242 1.6 6.4 0.00 1.57 1.57 72 1007.2
20260506165555 17 0 0.0 0.0 0.00 1.57 1.57 69 1007.0
20260506165056 17 0 0.0 0.0 0.00 1.57 1.57 70 1007.0
20260506164558 17 0 0.0 0.0 0.00 1.57 1.57 70 1007.0
20260506164057 17 0 0.0 0.0 0.00 1.57 1.57 69 1006.9
20260506163557 17 0 0.0 4.8 0.00 1.57 1.57 68 1006.9
20260506163059 17 0 0.0 14.5 0.00 1.57 1.57 67 1006.9
20260506162557 17 0 1.6 14.5 0.00 1.57 1.57 67 1006.7
20260506162057 17 0 1.6 14.5 0.00 1.57 1.57 66 1006.6
20260506161600 17 178 4.8 16.1 0.00 1.57 1.57 65 1006.5
20260506161055 17 143 6.4 16.1 0.00 1.57 1.57 67 1006.6
20260506160558 17 165 6.4 16.1 0.00 1.57 1.57 68 1006.6
20260506160100 17 175 3.2 14.5 0.00 1.57 1.57 69 1006.7
20260506155558 17 0 4.8 11.3 0.00 1.57 1.57 72 1006.6
20260506155102 16 180 0.0 11.3 0.00 1.57 1.57 73 1006.9
20260506154612 16 0 1.6 11.3 0.00 1.57 1.57 72 1006.9
20260506154056 16 0 1.6 16.1 0.00 1.57 1.57 73 1006.9
20260506153558 16 0 4.8 16.1 0.00 1.57 1.57 73 1006.9
20260506153056 16 185 3.2 14.5 0.00 1.57 1.57 73 1006.9
20260506152557 16 0 4.8 9.7 0.00 1.57 1.57 74 1007.0
20260506152057 16 192 3.2 12.9 0.00 1.57 1.57 75 1007.0
20260506151555 16 0 6.4 12.9 0.03 1.57 1.57 76 1006.9
20260506151055 16 171 0.0 3.2 0.03 1.57 1.57 77 1007.0
20260506150556 17 0 0.0 8.0 0.03 1.57 1.57 77 1007.0
20260506150057 16 0 0.0 9.7 0.03 1.57 1.57 77 1007.1
20260506145558 16 0 0.0 14.5 0.03 1.57 1.57 78 1007.0
20260506145058 16 156 6.4 14.5 0.03 1.57 1.57 79 1007.2
20260506144607 16 173 3.2 12.9 0.03 1.57 1.57 80 1007.2
20260506144101 16 177 0.0 11.3 0.03 1.57 1.57 80 1007.1
20260506143600 16 0 1.6 11.3 0.03 1.57 1.57 81 1007.2
20260506143057 16 0 0.0 19.3 0.03 1.57 1.57 78 1007.3
20260506142556 16 0 1.6 20.9 0.00 1.57 1.57 77 1007.4
20260506142057 16 0 6.4 20.9 0.00 1.57 1.57 76 1007.2
20260506141601 16 169 3.2 16.1 0.00 1.55 1.55 74 1007.3
20260506141058 17 0 0.0 16.1 0.00 1.55 1.55 72 1007.3
20260506140600 17 156 1.6 16.1 0.00 1.55 1.55 70 1007.2
20260506140057 17 155 6.4 17.7 0.00 1.55 1.55 69 1007.2
20260506135559 17 0 4.8 17.7 0.00 1.55 1.55 69 1007.3
20260506135057 17 123 4.8 16.1 0.00 1.55 1.55 69 1007.2
20260506134554 17 153 3.2 16.1 0.00 1.55 1.55 70 1007.2
20260506134102 18 0 0.0 12.9 0.00 1.55 1.55 69 1007.2
20260506133558 17 134 1.6 16.1 0.00 1.55 1.55 68 1007.2
20260506133119 18 126 0.0 16.1 0.00 1.55 1.55 70 1007.3
20260506132557 18 103 3.2 16.1 0.00 1.55 1.55 68 1007.2
20260506132057 18 138 3.2 16.1 0.00 1.55 1.55 67 1007.3
20260506131555 18 0 0.0 17.7 0.00 1.55 1.55 67 1007.4
20260506131056 18 83 1.6 20.9 0.00 1.55 1.55 66 1007.3
20260506130558 18 0 9.7 20.9 0.00 1.55 1.55 65 1007.3
20260506130121 18 0 3.2 19.3 0.00 1.55 1.55 68 1007.2
20260506125557 18 97 8.0 19.3 0.00 1.55 1.55 67 1007.2
20260506125055 18 156 3.2 14.5 0.00 1.55 1.55 67 1007.4
20260506124555 18 145 3.2 14.5 0.00 1.55 1.55 68 1007.3
20260506124056 17 0 1.6 14.5 0.00 1.55 1.55 69 1007.3
20260506123558 17 0 3.2 12.9 0.00 1.55 1.55 71 1007.2
20260506123058 17 0 0.0 11.3 0.00 1.55 1.55 70 1007.2
20260506122559 17 0 1.6 16.1 0.00 1.55 1.55 70 1007.2
20260506122056 17 170 1.6 16.1 0.00 1.55 1.55 70 1007.1
20260506121557 17 0 4.8 20.9 0.00 1.55 1.55 69 1007.0
20260506121058 17 0 6.4 20.9 0.00 1.55 1.55 69 1006.9
20260506120559 17 127 11.3 19.3 0.00 1.55 1.55 68 1006.9
20260506120058 17 98 4.8 17.7 0.00 1.55 1.55 67 1006.9
20260506115602 18 0 6.4 25.7 0.00 1.55 1.55 65 1007.0
20260506115056 18 119 8.0 25.7 0.00 1.55 1.55 65 1006.8
20260506114604 18 125 9.7 25.7 0.00 1.55 1.55 65 1007.0
20260506114055 18 146 8.0 22.5 0.00 1.55 1.55 66 1006.9
20260506113557 18 171 6.4 17.7 0.00 1.55 1.55 65 1007.0
20260506113056 18 155 6.4 17.7 0.00 1.55 1.55 66 1006.9
20260506112555 18 150 4.8 17.7 0.00 1.55 1.55 66 1006.8
20260506112100 18 129 1.6 17.7 0.00 1.55 1.55 68 1006.9
20260506111557 18 139 4.8 19.3 0.00 1.55 1.55 68 1006.9
20260506111056 18 167 6.4 19.3 0.00 1.55 1.55 66 1007.0
20260506110557 18 154 3.2 16.1 0.00 1.55 1.55 63 1007.1
20260506110057 18 159 3.2 14.5 0.00 1.55 1.55 65 1007.1
20260506105558 18 157 6.4 14.5 0.00 1.55 1.55 66 1007.3
20260506105056 18 125 4.8 14.5 0.00 1.55 1.55 66 1007.3
20260506104627 18 0 1.6 11.3 0.00 1.55 1.55 66 1007.5
20260506104056 18 65 0.0 11.3 0.00 1.55 1.55 65 1007.5
20260506103556 18 0 1.6 9.7 0.00 1.55 1.55 66 1007.6
20260506103100 17 0 3.2 9.7 0.00 1.55 1.55 70 1007.5
20260506102556 17 173 0.0 9.7 0.00 1.55 1.55 70 1007.6
20260506102057 17 0 0.0 4.8 0.00 1.55 1.55 70 1007.6
20260506101558 17 0 0.0 4.8 0.00 1.55 1.55 68 1007.6
20260506101057 17 0 0.0 6.4 0.00 1.55 1.55 70 1007.7
20260506100557 17 0 1.6 9.7 0.00 1.55 1.55 71 1007.8
20260506100057 16 0 0.0 9.7 0.00 1.55 1.55 72 1007.8
20260506095559 16 0 0.0 9.7 0.00 1.57 1.55 76 1007.8
20260506095056 16 153 0.0 4.8 0.00 1.57 1.55 75 1007.8
20260506094555 16 0 0.0 4.8 0.00 1.57 1.55 76 1008.0
20260506094057 15 0 0.0 0.0 0.00 1.57 1.55 77 1008.0
20260506093558 15 0 0.0 0.0 0.00 1.57 1.55 80 1008.0
20260506093056 15 0 0.0 6.4 0.00 1.57 1.55 79 1008.1
20260506092600 15 0 0.0 6.4 0.00 1.57 1.55 82 1008.1
20260506092057 14 0 0.0 8.0 0.00 1.57 1.55 85 1008.3
20260506091601 14 0 0.0 8.0 0.00 1.57 1.55 85 1008.3
20260506091057 13 0 0.0 6.4 0.00 1.57 1.55 88 1008.3
20260506090557 13 0 0.0 0.0 0.00 1.57 1.55 88 1008.5
20260506090055 13 0 0.0 0.0 0.00 1.57 1.55 88 1008.6
20260506085557 12 0 0.0 0.0 0.00 1.57 1.55 89 1008.6
20260506085057 12 0 0.0 0.0 0.00 1.57 1.55 89 1008.6
20260506084557 12 0 0.0 0.0 0.00 1.57 1.55 90 1008.6
20260506084057 12 0 0.0 0.0 0.00 1.57 1.55 90 1008.7
20260506083555 12 0 0.0 0.0 0.00 1.57 1.55 90 1008.7
20260506083056 12 0 0.0 0.0 0.00 1.57 1.55 90 1008.7
20260506082555 12 0 0.0 0.0 0.00 1.57 1.55 91 1008.7
20260506082057 12 0 0.0 0.0 0.00 1.57 1.55 91 1008.8
20260506081600 12 0 0.0 0.0 0.00 1.57 1.55 91 1008.7
20260506081058 12 0 0.0 3.2 0.00 1.57 1.55 92 1008.7
20260506080557 12 0 0.0 4.8 0.00 1.57 1.55 92 1008.7
20260506080118 12 116 0.0 4.8 0.00 1.57 1.55 92 1008.7
20260506073109 11 0 0.0 8.0 0.00 1.57 1.55 92 1008.5
20260506072558 11 0 0.0 12.9 0.00 1.57 1.55 92 1008.5
20260506072054 11 0 0.0 14.5 0.00 1.57 1.55 92 1008.5
20260506071624 11 190 6.4 14.5 0.00 1.57 1.55 92 1008.5
20260506071055 11 187 0.0 11.3 0.00 1.57 1.55 92 1008.4
20260506070555 11 0 1.6 14.5 0.00 1.57 1.55 92 1008.3
20260506062057 11 180 0.0 8.0 0.03 1.55 1.52 93 1008.7
20260506061558 11 0 0.0 11.3 0.08 1.55 1.52 93 1008.8
20260506061056 10 180 0.0 11.3 0.08 1.55 1.52 92 1009.0
20260506060558 10 196 4.8 11.3 0.10 1.55 1.52 92 1009.0
20260506051055 11 0 1.6 14.5 0.46 1.45 1.42 92 1009.1
20260506050555 11 168 3.2 14.5 0.56 1.42 1.40 92 1009.1
20260506045056 11 0 0.0 12.9 0.64 1.55 1.35 92 1009.0
20260506044609 11 0 0.0 16.1 0.64 1.50 1.30 92 1009.0
20260506044055 11 0 3.2 16.1 0.69 1.50 1.30 92 1009.0
20260506043557 11 128 1.6 11.3 0.66 1.42 1.22 92 1009.0
20260506043058 11 0 0.0 11.3 0.64 1.40 1.19 92 1009.0
20260506042556 11 148 0.0 12.9 0.64 1.37 1.17 92 1009.0
20260506042055 11 112 0.0 12.9 0.64 1.35 1.14 92 1009.1
20260506041555 11 0 1.6 12.9 0.56 1.24 1.04 92 1009.1
20260506041055 11 0 0.0 11.3 0.48 1.12 0.94 92 1009.1
20260506040554 11 0 1.6 11.3 0.41 1.04 0.84 92 1009.3
20260506040058 11 176 1.6 9.7 0.36 0.99 0.79 92 1009.1
20260506035554 11 0 0.0 14.5 0.28 1.14 0.74 92 1009.2
20260506035054 11 0 0.0 14.5 0.28 1.12 0.69 92 1009.1
20260506034600 11 189 3.2 11.3 0.25 1.07 0.64 92 1009.2
20260506034055 11 182 3.2 9.7 0.20 1.02 0.58 92 1009.2
20260506033556 11 0 0.0 0.0 0.20 0.97 0.56 92 1009.4
20260506033054 11 0 0.0 0.0 0.23 0.94 0.53 92 1009.4
20260506032555 11 0 0.0 0.0 0.23 0.94 0.51 92 1009.4
20260506032055 11 0 0.0 11.3 0.28 0.91 0.48 92 1009.4
20260506031557 11 0 0.0 11.3 0.28 0.89 0.46 92 1009.5
20260506031058 11 173 1.6 12.9 0.28 0.84 0.43 91 1009.7
20260506030555 11 180 4.8 12.9 0.28 0.84 0.43 91 1009.6
20260506030100 11 175 0.0 12.9 0.28 0.84 0.43 91 1009.8
20260506025555 11 0 0.0 12.9 0.28 0.99 0.43 91 1009.9
20260506025054 11 189 3.2 8.0 0.23 0.94 0.38 91 1010.1
20260506024555 11 0 0.0 6.4 0.23 0.94 0.38 91 1010.2
20260506024058 11 0 0.0 6.4 0.20 0.94 0.36 91 1010.2
20260506023556 11 0 0.0 6.4 0.18 0.89 0.33 91 1010.2
20260506023058 11 0 0.0 9.7 0.13 0.84 0.28 91 1010.2
20260506022557 11 0 3.2 9.7 0.10 0.84 0.28 91 1010.3
20260506022053 11 0 0.0 0.0 0.03 0.74 0.18 91 1010.2
20260506021559 11 0 0.0 0.0 0.00 0.74 0.18 91 1010.2
20260506021056 11 0 0.0 0.0 0.00 0.71 0.15 91 1010.2
20260506020557 11 0 0.0 0.0 0.00 0.71 0.15 91 1010.3
20260506020140 11 0 0.0 0.0 0.00 0.71 0.15 91 1010.4
20260506015600 11 0 0.0 0.0 0.00 0.74 0.15 91 1010.4